| time (UTC) | temp F | wind direction | speed MPH | gust MPH | rain 1hr in | rain 24hr in | rain mn in | humidity % | barometer mb |
| 20260506084611 | 28 | 0 | 0.0 | 0.0 | 0.00 | 0.00 | 0.00 | 90 | 1018.7 |
| 20260506083053 | 28 | 0 | 0.0 | 0.0 | 0.00 | 0.00 | 0.00 | 90 | 1018.7 |
| 20260506081552 | 28 | 0 | 0.0 | 0.0 | 0.00 | 0.00 | 0.00 | 89 | 1018.6 |
| 20260506073047 | 29 | 0 | 0.0 | 0.0 | 0.00 | 0.00 | 0.00 | 89 | 1018.9 |
| 20260506071551 | 29 | 0 | 0.0 | 0.0 | 0.00 | 0.00 | 0.00 | 87 | 1018.7 |
| 20260506061549 | 32 | 0 | 0.0 | 0.0 | 0.00 | 0.00 | 0.00 | 86 | 1018.3 |
| 20260506050105 | 33 | 0 | 0.0 | 0.0 | 0.00 | 0.00 | 0.00 | 85 | 1017.7 |
| 20260506044548 | 33 | 0 | 0.0 | 1.0 | 0.00 | 0.00 | 0.00 | 84 | 1017.7 |
| 20260506043044 | 33 | 0 | 0.0 | 0.0 | 0.00 | 0.00 | 0.00 | 84 | 1017.5 |
| 20260506041559 | 35 | 0 | 0.0 | 1.0 | 0.00 | 0.00 | 0.00 | 83 | 1017.4 |
| 20260506040051 | 37 | 0 | 0.0 | 0.0 | 0.00 | 0.00 | 0.00 | 87 | 1017.2 |
| 20260506034552 | 37 | 0 | 0.0 | 1.0 | 0.00 | 0.00 | 0.00 | 86 | 1016.9 |
| 20260506033051 | 38 | 0 | 0.0 | 1.0 | 0.00 | 0.00 | 0.00 | 83 | 1016.5 |
| 20260506031551 | 39 | 198 | 0.0 | 1.0 | 0.00 | 0.00 | 0.00 | 83 | 1016.4 |
| 20260506030050 | 39 | 212 | 0.0 | 2.0 | 0.00 | 0.00 | 0.00 | 82 | 1016.3 |
| 20260506024550 | 39 | 0 | 0.0 | 1.0 | 0.00 | 0.00 | 0.00 | 81 | 1016.1 |
| 20260506023105 | 39 | 11 | 0.0 | 1.0 | 0.00 | 0.00 | 0.00 | 84 | 1016.0 |
| 20260506021548 | 39 | 0 | 0.0 | 1.0 | 0.00 | 0.00 | 0.00 | 87 | 1015.8 |
| 20260506020052 | 39 | 0 | 0.0 | 0.0 | 0.00 | 0.00 | 0.00 | 86 | 1015.7 |
| 20260506014551 | 40 | 0 | 0.0 | 2.0 | 0.00 | 0.00 | 0.00 | 85 | 1015.6 |
| 20260506013056 | 39 | 44 | 1.0 | 7.0 | 0.00 | 0.00 | 0.00 | 85 | 1015.4 |
| 20260506011549 | 40 | 136 | 2.0 | 7.0 | 0.00 | 0.00 | 0.00 | 84 | 1015.3 |
| 20260506010050 | 41 | 39 | 1.0 | 6.0 | 0.00 | 0.00 | 0.00 | 81 | 1015.2 |
| 20260506004552 | 42 | 75 | 0.0 | 5.0 | 0.00 | 0.00 | 0.00 | 79 | 1014.9 |
| 20260506003045 | 43 | 150 | 0.0 | 4.0 | 0.00 | 0.00 | 0.00 | 75 | 1014.7 |
| 20260506001556 | 43 | 0 | 0.0 | 3.0 | 0.00 | 0.00 | 0.00 | 74 | 1014.7 |
| 20260506000058 | 43 | 0 | 1.0 | 5.0 | 0.00 | 0.00 | 0.00 | 69 | 1014.5 |
| 20260505234550 | 45 | 95 | 2.0 | 7.0 | 0.00 | 0.00 | 0.00 | 66 | 1014.7 |
| 20260505233052 | 46 | 246 | 0.0 | 5.0 | 0.00 | 0.00 | 0.00 | 66 | 1014.4 |
| 20260505231549 | 46 | 309 | 1.0 | 4.0 | 0.00 | 0.00 | 0.00 | 65 | 1014.6 |
| 20260505230111 | 46 | 264 | 1.0 | 6.0 | 0.00 | 0.00 | 0.00 | 66 | 1014.6 |
| 20260505224551 | 46 | 143 | 1.0 | 4.0 | 0.00 | 0.00 | 0.00 | 63 | 1014.6 |
| 20260505223052 | 47 | 170 | 0.0 | 4.0 | 0.00 | 0.00 | 0.00 | 60 | 1014.7 |
| 20260505221555 | 47 | 283 | 0.0 | 4.0 | 0.00 | 0.00 | 0.00 | 61 | 1015.1 |
| 20260505220056 | 46 | 196 | 1.0 | 5.0 | 0.00 | 0.00 | 0.00 | 60 | 1015.3 |
| 20260505214546 | 46 | 231 | 1.0 | 4.0 | 0.00 | 0.00 | 0.00 | 60 | 1015.3 |
| 20260505213052 | 45 | 168 | 1.0 | 3.0 | 0.00 | 0.00 | 0.00 | 61 | 1015.4 |
| 20260505211559 | 45 | 195 | 0.0 | 4.0 | 0.00 | 0.00 | 0.00 | 60 | 1015.5 |
| 20260505210051 | 46 | 206 | 2.0 | 6.0 | 0.00 | 0.00 | 0.00 | 55 | 1015.7 |
| 20260505204549 | 46 | 333 | 1.0 | 4.0 | 0.00 | 0.00 | 0.00 | 56 | 1015.6 |
| 20260505203046 | 46 | 275 | 0.0 | 4.0 | 0.00 | 0.00 | 0.00 | 57 | 1015.7 |
| 20260505201549 | 45 | 188 | 1.0 | 4.0 | 0.00 | 0.00 | 0.00 | 62 | 1015.7 |
| 20260505200050 | 45 | 176 | 0.0 | 3.0 | 0.00 | 0.00 | 0.00 | 61 | 1015.6 |
| 20260505194548 | 43 | 205 | 1.0 | 4.0 | 0.00 | 0.00 | 0.00 | 62 | 1015.7 |
| 20260505193100 | 44 | 308 | 1.0 | 5.0 | 0.00 | 0.00 | 0.00 | 60 | 1015.8 |
| 20260505191552 | 45 | 283 | 0.0 | 5.0 | 0.00 | 0.00 | 0.00 | 62 | 1015.5 |
| 20260505190047 | 45 | 252 | 0.0 | 6.0 | 0.00 | 0.00 | 0.00 | 62 | 1015.3 |
| 20260505184548 | 45 | 314 | 0.0 | 4.0 | 0.00 | 0.00 | 0.00 | 62 | 1015.3 |
| 20260505183047 | 44 | 138 | 1.0 | 4.0 | 0.00 | 0.00 | 0.00 | 69 | 1015.4 |
| 20260505181556 | 43 | 295 | 1.0 | 5.0 | 0.00 | 0.00 | 0.00 | 71 | 1015.1 |
| 20260505180050 | 41 | 323 | 0.0 | 4.0 | 0.00 | 0.00 | 0.00 | 78 | 1015.1 |
| 20260505174548 | 42 | 205 | 0.0 | 4.0 | 0.00 | 0.00 | 0.00 | 74 | 1014.9 |
| 20260505173045 | 43 | 20 | 1.0 | 4.0 | 0.00 | 0.00 | 0.00 | 74 | 1014.5 |
| 20260505171544 | 42 | 148 | 1.0 | 5.0 | 0.00 | 0.00 | 0.00 | 76 | 1014.4 |
| 20260505170047 | 41 | 0 | 0.0 | 5.0 | 0.00 | 0.00 | 0.00 | 82 | 1014.4 |
| 20260505164550 | 40 | 310 | 0.0 | 3.0 | 0.00 | 0.00 | 0.00 | 81 | 1014.2 |
| 20260505163048 | 38 | 0 | 0.0 | 2.0 | 0.00 | 0.00 | 0.00 | 87 | 1014.0 |
| 20260505161547 | 37 | 273 | 0.0 | 4.0 | 0.00 | 0.00 | 0.00 | 88 | 1014.0 |
| 20260505153050 | 35 | 0 | 0.0 | 2.0 | 0.00 | 0.00 | 0.00 | 91 | 1013.3 |
| 20260505151548 | 35 | 0 | 0.0 | 1.0 | 0.00 | 0.00 | 0.00 | 91 | 1013.1 |
| 20260505130106 | 34 | 42 | 0.0 | 3.0 | 0.00 | 0.00 | 0.00 | 90 | 1012.9 |
| 20260505124553 | 33 | 0 | 0.0 | 2.0 | 0.00 | 0.00 | 0.00 | 88 | 1012.8 |
| 20260505123054 | 33 | 215 | 0.0 | 1.0 | 0.00 | 0.00 | 0.00 | 88 | 1012.7 |
| 20260505121553 | 33 | 0 | 0.0 | 1.0 | 0.00 | 0.00 | 0.00 | 88 | 1012.8 |
| 20260505120049 | 33 | 0 | 0.0 | 1.0 | 0.00 | 0.00 | 0.00 | 88 | 1012.5 |
| 20260505114550 | 33 | 326 | 0.0 | 1.0 | 0.00 | 0.00 | 0.00 | 88 | 1012.5 |
| 20260505113053 | 33 | 0 | 0.0 | 2.0 | 0.00 | 0.00 | 0.00 | 88 | 1012.7 |
| 20260505111547 | 33 | 0 | 0.0 | 2.0 | 0.00 | 0.00 | 0.00 | 88 | 1012.6 |
| 20260505101550 | 34 | 205 | 0.0 | 1.0 | 0.00 | 0.00 | 0.00 | 86 | 1013.1 |
| 20260505100049 | 34 | 0 | 0.0 | 4.0 | 0.00 | 0.00 | 0.00 | 87 | 1013.2 |
| 20260505094547 | 34 | 110 | 0.0 | 2.0 | 0.00 | 0.00 | 0.00 | 87 | 1013.2 |
| 20260505093048 | 34 | 356 | 0.0 | 3.0 | 0.00 | 0.00 | 0.00 | 88 | 1013.4 |
| 20260505091549 | 35 | 325 | 0.0 | 3.0 | 0.00 | 0.00 | 0.00 | 89 | 1013.6 |